Location: �couen
(49.0206°N, 2.3831°E)
Time: 03:21:20
(UTC+00:00)

Cosmos 2084 Rocket - Pass Details

Date: 16 October 2021
Orbit: 508 x 671 km, 62.8° (Epoch: 27 November)

Event Time Altitude Azimuth Distance (km) Brightness Sun altitude
Rises 17:57:26 0° 228° (SW) 2,607 7.6 -10.4°
Reaches altitude 10° 17:59:35 10° 230° (SW) 1,723 6.7 -10.8°
Maximum altitude 18:03:25 70° 315° (NW) 548 3.4 -11.4°
Drops below altitude 10° 18:07:20 10° 40° (NE) 1,758 5.5 -12.0°
Enters shadow 18:07:46 - 40° (NE) 1,937 5.7 -12.1°
